SCP
0 0 0 0 0 0 0 0 0 0 0 0 0 0 0 0 0 0 0 0 0 0 0 0 0 0 0 0 0 0 0 0 0 0 0 0 0 0 0 0 0 0 0 0
0 0 0 0 0 0 0 0 0 0 0 0 0 0 0 0 0 0 0 0 0 0 0 0 0 0 0 0 0 0 0 0 0 0 0 0 0 0 0 0 0 0 0 0
0 0 0 0 0 0 0 0 0 0 0 0 0 0 0 0 0 0 0 0 0 0 0 0 0 0 0 0 0 0 0 0 0 0 0 0 0 0 0 0 0 0 0 0
0 0 0 0 0 0 0 0 0 0 0 0 0 0 0 0 -0 0 0 0 0 0 0 0 0 0 0 0 0 0 0 0 0 0 0 0 0 0 0 0 0 0 0 0
0 0 0 0 0 0 0 0 0 0 0 0 0 0 0 0 0 0 0 0 0 0 0 0 0 0 0 0 0 0 0 0 0 0 0 0 0 0 0 0 0 0 0 0
0 0 0 0 0 0 0 0 0 0 0 0 0 0 0 0 0 0 0 0 0 0 0 0 0 0 0 0 0 0 0 0 0 0 0 0 0 0 0 0 0 0 0 0
0 0 0 0 0 0 0 0 0 0 0 0 0 0 0 0 0 0 0 0 0 0 0 0 0 0 0 0 0 0 0 0 0 0 0 0 0 0 0 0 0 0 0 0
0 0 0 0 0 0 0 0 0 0 0 0 0 0 0 0 0 0 0 0 0 0 0 0 0 0 0 0 0 0 0 0 0 0 0 0 0 0 0 0 0 0 0 0
0 0 0 0 0 0 0 0 0 0 0 0 0 0 0 0 0 0 0 0 0 0 0 0 0 0 0 0 0 0 0 0 0 0 0 0 0 0 0 0 0 0 0 0
0 0 0 0 0 0 0 0 0 0 0 0 0 0 0 0 0 0 0 0 0 0 0 0 0 0 0 0 0 0 0 0 0 0 0 0 0 0 0 0 0 0 0 0
0 0 0 0 0 0 0 0 0 0 0 0 0 0 0 0 0 0 0 0 0 0 0 0 0 0 0 0 0 0 0 0 0 0 0 0 0 0 0 0 0 0 0 0
0 0 0 0 0 0 0 0 0 0 0 0 0 0 0 0 0 0 0 0 0 0 0 0 0 0 0 0 0 0 0 0 0 0 0 0 0 0 0 0 0 0 0 0
0 0 0 0 0 0 0 0 0 0 0 0 0 0 0 0 0 0 0 0 0 0 0 0 0 0 0 0 0 0 0 0 0 0 0 0 0 0 0 0 0 0 0 0
0 0 0 0 0 0 0 0 0 0 0 0 0 0 0 0 0 0 0 0 0 0 0 0 0 0 0 0 0 0 0 0 0 0 0 0 0 0 0 0 0 0 0 0
0 0 0 0 0 0 0 0 0 0 0 0 0 0 0 0 0 0 0 0 0 0 0 0 0 0 0 0 0 0 0 0 0 0 0 0 0 0 0 0 0 0 0 0
0 0 0 0 0 0 0 0 0 0 0 0 0 0 0 0 0 0 0 0 0 0 0 0 0 0 0 0 0 0 0 0 0 0 0 0 0 0 0 0 0 0 0 0
0 0 0 0 0 0 0 0 0 0 0 0 0 0 0 0 0 0 0 0 0 0 0 0 0 0 0 0 0 0 0 0 0 0 0 0 0 0 0 0 0 0 0 0
0 0 0 0 0 0 0 0 0 0 0 0 0 0 0 0 0 0 0 0 0 0 0 0 0 0 0 0 0 0 0 0 0 0 0 0 0 0 0 0 0 0 0 0
0 0 0 0 0 0 0 0 0 0 0 0 0 0 0 0 0 0 0 0 0 0 0 0 0 0 0 0 0 0 0 0 0 0 0 0 0 0 0 0 0 0 0 0
0 0 0 0 0 0 0 0 0 0 0 0 0 0 0 0 0 0 0 0 0 0 0 0 0 0 0 0 0 0 0 0 0 0 0 0 0 0 0 0 0 0 0 0
0 0 0 0 0 0 0 0 0 0 0 0 0 0 0 0 0 0 0 0 0 0 0 0 0 0 0 0 0 0 0 0 0 0 0 0 0 0 0 0 0 0 0 0
0 0 0 0 0 0 0 0 0 0 0 0 0 0 0 0 0 0 0 0 0 0 0 0 0 0 0 0 0 0 0 0 0 0 0 0 0 0 0 0 0 0 0 0
0 -0 0 0 -0 0 -0 -0 0 0 0 0 0 0 0 0 0 0 0 0 0 0 0 0 0 0 0 0 0 0 0 0 0 0 0 0 0 0 0 0 0 0 0 0
0 0 0 0 0 0 0 0 0 0 0 0 0 0 0 0 0 0 0 0 0 0 0 0 0 0 0 0 0 0 0 0 0 0 0 0 0 0 0 0 0 0 0 0
0 0 0 -0 -0 -0 0 0 0 0 0 0 0 0 0 0 0 0 0 0 0 0 0 0 0 0 0 0 0 0 0 0 0 0 0 0 0 0 0 0 0 0 0 0
0 0 0 0 0 0 0 0 0 0 0 0 0 0 0 0 0 0 0 0 0 0 0 0 0 0 0 0 0 0 0 0 0 0 0 0 0 0 0 0 0 0 0 0
Wind_Speed_500mb
3 4 13 15 13 4 5 5 10 9 5 5 13 20 38 41 33 41 51 49 50 57 50 48 47 48 47 43 40 35 30 28 25 23 21 19 17 15 13 11 9 7 5 2
6 13 8 6 7 5 3 4 12 12 4 5 13 23 35 42 22 22 13 20 39 50 54 48 51 54 53 46 41 38 34 31 27 25 23 22 20 19 17 14 13 11 8 6
12 3 9 6 5 6 7 10 8 12 9 4 13 16 12 9 8 15 16 12 23 48 54 52 54 56 55 50 43 39 35 32 29 29 29 26 24 23 21 20 18 15 13 11
11 1 9 6 9 13 7 9 5 3 6 7 7 13 13 15 19 12 20 12 12 32 45 50 54 57 56 50 43 36 34 33 33 33 31 29 26 24 23 23 22 19 18 16
11 12 9 9 13 15 11 4 4 2 3 6 4 1 16 6 12 9 12 4 3 15 30 43 50 50 53 49 44 38 34 35 35 33 32 31 31 29 27 26 27 25 22 21
12 2 9 12 4 8 10 6 8 7 5 3 10 12 10 8 5 10 10 9 7 14 22 27 35 41 47 48 44 38 33 33 34 35 34 33 33 32 31 30 29 27 26 24
4 8 3 6 7 2 5 9 7 8 3 11 8 3 17 7 5 5 8 18 20 22 24 26 27 33 40 47 45 39 35 34 33 33 33 32 32 32 30 28 27 28 27 26
8 13 16 10 12 14 11 15 10 12 8 9 5 14 11 6 12 15 22 25 27 28 29 30 28 28 32 42 44 38 33 31 29 29 29 29 29 29 28 28 29 29 29 29
11 13 3 5 4 6 8 9 4 1 4 4 9 14 10 8 7 11 17 23 25 26 28 31 31 32 34 34 33 29 26 25 25 24 24 24 24 24 25 26 27 28 28 29
7 11 4 4 4 5 6 7 6 4 7 12 12 13 14 14 16 11 10 17 20 23 27 29 29 29 29 30 31 29 28 25 22 20 21 20 20 20 21 22 23 24 25 26
9 8 6 7 13 18 4 5 4 4 8 9 10 15 11 14 17 19 13 21 23 24 27 28 27 27 25 24 23 24 22 22 21 19 18 18 19 19 19 19 20 22 24 27
13 9 11 23 6 5 9 18 19 12 13 9 5 37 6 3 10 26 26 27 25 22 21 24 26 24 23 20 19 21 20 18 17 15 14 15 17 17 19 20 22 28 33 40
13 7 8 16 4 5 9 9 10 4 3 38 15 20 3 10 11 25 36 35 27 25 20 18 19 19 15 14 11 12 11 11 14 18 20 20 21 23 25 28 33 36 30 26
23 13 16 33 24 7 10 14 15 24 17 16 40 44 15 16 20 19 32 31 30 27 25 20 17 16 14 12 10 8 8 6 7 9 13 17 19 20 22 23 21 23 24 27
14 36 19 38 40 31 37 38 24 31 33 22 43 35 41 27 35 41 42 39 36 31 26 22 20 18 14 10 6 4 3 2 3 5 7 10 12 16 18 20 21 23 25 25
9 28 17 38 26 25 38 50 43 48 51 42 48 61 42 12 34 34 43 43 38 36 29 22 17 15 11 6 3 3 3 4 5 8 11 13 16 19 21 22 25 30 30 29
12 10 11 32 32 32 33 55 53 47 38 39 44 57 13 12 21 29 37 39 38 31 24 19 14 11 7 3 3 6 10 12 13 14 15 17 20 22 24 27 30 34 35 38
24 25 9 21 21 33 19 6 4 32 19 5 7 9 14 28 36 39 35 41 33 26 18 10 7 5 2 5 7 10 14 17 17 18 20 22 25 28 30 32 34 36 39 41
39 35 18 20 32 34 7 10 8 3 4 14 8 19 31 44 48 31 25 28 26 17 13 5 3 7 8 10 12 14 17 20 22 23 25 28 32 35 38 40 41 42 44 45
28 44 32 28 33 40 12 12 33 10 5 25 13 13 19 11 4 5 17 12 13 8 2 4 7 12 15 18 20 21 23 25 27 31 34 36 39 43 45 45 46 47 47 51
9 11 32 39 29 10 16 36 35 5 8 25 33 24 20 9 12 27 15 9 5 5 7 11 14 17 21 25 27 29 32 33 34 37 40 41 41 44 46 48 48 51 51 53
7 11 10 13 11 7 57 14 12 1 27 27 30 28 35 29 22 14 9 6 9 12 14 18 21 22 25 29 34 34 32 34 38 41 42 42 42 42 43 46 48 49 50 53
7 8 8 9 7 11 31 25 29 20 24 27 28 27 20 17 15 8 11 13 17 20 23 25 28 28 27 30 34 34 35 39 42 42 43 43 45 43 43 48 50 52 52 55
20 45 8 5 11 16 35 31 32 29 29 25 24 23 21 18 16 15 15 20 25 28 32 33 32 30 33 32 32 35 40 41 44 48 48 48 50 48 48 49 50 51 52 52
13 21 15 5 11 14 28 31 28 27 26 25 23 23 23 23 23 26 29 31 32 34 35 33 34 39 40 40 39 38 42 45 48 50 50 51 52 52 52 51 49 46 47 46
28 10 8 5 28 11 13 23 29 31 33 32 34 33 28 29 30 32 33 34 37 38 36 41 43 44 45 47 47 45 46 47 51 54 55 54 56 55 52 49 50 42 42 41
Wind_Direction_500mb
33 75 222 222 202 172 150 198 251 253 266 269 234 268 283 290 240 253 262 256 237 227 222 216 212 210 207 210 212 214 219 220 220 219 214 209 205 205 209 212 209 207 208 202
17 237 220 118 142 144 152 247 262 283 279 196 304 277 277 282 267 257 273 255 228 222 221 214 210 210 210 213 212 214 217 222 220 217 216 215 216 219 222 223 225 222 225 236
187 245 118 135 157 183 218 198 229 238 332 266 322 282 307 295 275 282 270 276 225 219 214 209 209 210 210 212 215 215 217 221 222 220 221 221 226 226 227 229 231 230 232 240
232 253 173 180 230 155 269 206 171 253 36 255 4 289 305 290 300 272 270 248 233 213 213 211 210 209 210 211 211 214 217 222 225 226 227 231 234 233 232 231 234 237 239 243
254 169 185 197 218 163 223 105 138 96 155 9 277 188 268 311 304 343 344 262 230 198 204 207 209 211 210 208 209 211 216 223 227 232 232 233 234 234 234 238 239 240 242 245
245 262 189 211 129 166 134 96 61 61 100 316 216 170 273 231 227 312 3 71 90 156 163 181 199 209 211 206 208 212 220 226 231 234 236 239 241 241 243 244 243 244 247 249
281 222 224 174 126 51 125 70 318 326 1 230 147 179 242 239 320 288 328 97 108 132 147 161 179 193 202 206 208 213 220 226 231 236 239 242 244 246 248 247 247 249 253 257
207 307 182 178 201 184 179 170 168 246 227 262 128 238 247 131 89 88 102 114 117 120 129 139 148 164 182 194 202 209 218 222 224 231 240 243 245 248 249 247 248 251 255 259
179 265 155 189 151 151 179 184 196 166 117 352 226 284 276 141 111 92 97 112 103 111 121 129 141 153 164 179 193 201 208 213 218 226 235 242 245 245 247 250 253 254 257 259
220 291 194 141 114 42 166 164 79 11 248 245 270 269 239 224 202 158 124 108 113 116 121 125 133 142 155 168 181 187 197 203 210 220 230 236 242 243 245 246 247 250 253 256
157 167 241 130 196 185 129 217 216 178 172 213 266 260 215 218 183 170 144 143 136 125 122 124 128 137 149 163 175 180 192 202 205 212 226 234 240 242 243 247 252 259 265 269
210 172 234 218 237 195 193 203 179 205 234 238 256 264 7 62 122 134 137 145 142 134 129 133 135 136 144 153 166 178 181 198 198 211 230 245 250 252 256 258 256 270 273 277
186 217 309 309 23 14 229 210 216 314 10 243 238 253 112 111 118 148 147 156 151 152 143 142 142 144 154 160 187 190 202 225 245 247 249 253 258 261 263 269 277 281 280 275
167 189 204 254 250 148 208 221 211 220 239 245 234 262 214 201 182 168 163 160 157 159 155 155 143 132 133 136 144 150 152 181 219 230 241 249 258 271 276 277 279 281 277 276
181 256 231 256 260 258 259 258 231 229 235 242 261 241 255 216 195 183 166 158 155 152 150 149 142 131 132 131 136 132 138 183 259 277 280 290 296 291 286 284 280 275 273 276
203 247 222 255 260 241 253 253 246 246 249 250 252 260 265 76 146 155 159 155 148 148 147 142 132 125 119 109 88 50 5 343 333 312 308 303 296 291 290 285 281 273 270 271
186 231 198 259 270 261 252 246 246 247 243 234 244 252 127 154 145 145 142 142 139 141 139 136 133 124 124 122 14 350 340 334 325 319 312 305 299 297 295 290 285 281 281 280
232 230 241 262 264 247 250 17 272 224 248 19 39 68 78 113 95 111 132 138 132 131 129 134 135 122 78 315 333 332 317 313 313 310 305 303 303 303 298 294 290 290 290 288
232 241 252 251 242 257 264 14 11 139 7 355 105 105 109 108 93 72 107 122 124 128 136 165 314 333 325 304 310 315 313 309 307 302 303 307 303 299 298 298 300 298 296 293
246 237 238 244 259 264 44 343 337 301 215 3 62 102 123 126 137 93 117 108 112 121 99 325 323 320 310 308 308 308 306 302 302 302 302 300 298 297 297 299 299 297 295 294
332 291 246 238 245 111 339 308 307 160 1 10 48 45 67 79 73 126 121 94 35 10 338 310 309 308 305 306 307 308 307 305 302 300 299 299 299 300 299 299 299 296 295 292
319 315 321 326 308 240 352 346 36 299 54 48 53 61 87 98 96 94 82 39 345 328 314 307 308 304 298 300 302 305 306 302 302 301 301 300 300 298 301 298 297 296 296 295
302 337 321 9 25 18 23 43 44 64 67 52 47 41 54 63 57 28 17 349 327 317 312 307 303 302 301 302 306 306 304 302 301 299 299 302 300 301 301 298 298 299 299 295
11 17 35 233 17 24 37 40 40 41 48 42 37 31 26 18 357 343 333 326 322 315 311 311 308 305 304 303 302 303 302 304 302 302 303 300 301 303 300 299 298 297 295 293
342 332 324 103 32 323 37 29 18 22 28 27 16 9 3 349 336 329 325 319 314 311 310 306 303 304 308 309 307 308 307 305 301 298 301 302 302 300 299 298 299 296 294 296
358 346 356 331 339 298 1 4 9 7 7 2 353 347 343 335 326 319 316 315 314 310 307 307 307 306 307 308 311 312 307 302 301 302 303 302 302 302 300 301 299 292 292 291
Wind_Speed_850mb
3 4 13 15 13 4 5 5 10 9 5 5 13 20 38 41 33 41 51 49 50 57 50 48 47 48 47 43 40 35 30 28 25 23 21 19 17 15 13 11 9 7 5 2
6 13 8 6 7 5 3 4 12 12 4 5 13 23 35 42 22 22 13 20 39 50 54 48 51 54 53 46 41 38 34 31 27 25 23 22 20 19 17 14 13 11 8 6
12 3 9 6 5 6 7 10 8 12 9 4 13 16 12 9 8 15 16 12 23 48 54 52 54 56 55 50 43 39 35 32 29 29 29 26 24 23 21 20 18 15 13 11
11 1 9 6 9 13 7 9 5 3 6 7 7 13 13 15 19 12 20 12 12 32 45 50 54 57 56 50 43 36 34 33 33 33 31 29 26 24 23 23 22 19 18 16
11 12 9 9 13 15 11 4 4 2 3 6 4 1 16 6 12 9 12 4 3 15 30 43 50 50 53 49 44 38 34 35 35 33 32 31 31 29 27 26 27 25 22 21
12 2 9 12 4 8 10 6 8 7 5 3 10 12 10 8 5 10 10 9 7 14 22 27 35 41 47 48 44 38 33 33 34 35 34 33 33 32 31 30 29 27 26 24
4 8 3 6 7 2 5 9 7 8 3 11 8 3 17 7 5 5 8 18 20 22 24 26 27 33 40 47 45 39 35 34 33 33 33 32 32 32 30 28 27 28 27 26
8 13 16 10 12 14 11 15 10 12 8 9 5 14 11 6 12 15 22 25 27 28 29 30 28 28 32 42 44 38 33 31 29 29 29 29 29 29 28 28 29 29 29 29
11 13 3 5 4 6 8 9 4 1 4 4 9 14 10 8 7 11 17 23 25 26 28 31 31 32 34 34 33 29 26 25 25 24 24 24 24 24 25 26 27 28 28 29
7 11 4 4 4 5 6 7 6 4 7 12 12 13 14 14 16 11 10 17 20 23 27 29 29 29 29 30 31 29 28 25 22 20 21 20 20 20 21 22 23 24 25 26
9 8 6 7 13 18 4 5 4 4 8 9 10 15 11 14 17 19 13 21 23 24 27 28 27 27 25 24 23 24 22 22 21 19 18 18 19 19 19 19 20 22 24 27
13 9 11 23 6 5 9 18 19 12 13 9 5 37 6 3 10 26 26 27 25 22 21 24 26 24 23 20 19 21 20 18 17 15 14 15 17 17 19 20 22 28 33 40
13 7 8 16 4 5 9 9 10 4 3 38 15 20 3 10 11 25 36 35 27 25 20 18 19 19 15 14 11 12 11 11 14 18 20 20 21 23 25 28 33 36 30 26
23 13 16 33 24 7 10 14 15 24 17 16 40 44 15 16 20 19 32 31 30 27 25 20 17 16 14 12 10 8 8 6 7 9 13 17 19 20 22 23 21 23 24 27
14 36 19 38 40 31 37 38 24 31 33 22 43 35 41 27 35 41 42 39 36 31 26 22 20 18 14 10 6 4 3 2 3 5 7 10 12 16 18 20 21 23 25 25
9 28 17 38 26 25 38 50 43 48 51 42 48 61 42 12 34 34 43 43 38 36 29 22 17 15 11 6 3 3 3 4 5 8 11 13 16 19 21 22 25 30 30 29
12 10 11 32 32 32 33 55 53 47 38 39 44 57 13 12 21 29 37 39 38 31 24 19 14 11 7 3 3 6 10 12 13 14 15 17 20 22 24 27 30 34 35 38
24 25 9 21 21 33 19 6 4 32 19 5 7 9 14 28 36 39 35 41 33 26 18 10 7 5 2 5 7 10 14 17 17 18 20 22 25 28 30 32 34 36 39 41
39 35 18 20 32 34 7 10 8 3 4 14 8 19 31 44 48 31 25 28 26 17 13 5 3 7 8 10 12 14 17 20 22 23 25 28 32 35 38 40 41 42 44 45
28 44 32 28 33 40 12 12 33 10 5 25 13 13 19 11 4 5 17 12 13 8 2 4 7 12 15 18 20 21 23 25 27 31 34 36 39 43 45 45 46 47 47 51
9 11 32 39 29 10 16 36 35 5 8 25 33 24 20 9 12 27 15 9 5 5 7 11 14 17 21 25 27 29 32 33 34 37 40 41 41 44 46 48 48 51 51 53
7 11 10 13 11 7 57 14 12 1 27 27 30 28 35 29 22 14 9 6 9 12 14 18 21 22 25 29 34 34 32 34 38 41 42 42 42 42 43 46 48 49 50 53
7 8 8 9 7 11 31 25 29 20 24 27 28 27 20 17 15 8 11 13 17 20 23 25 28 28 27 30 34 34 35 39 42 42 43 43 45 43 43 48 50 52 52 55
20 45 8 5 11 16 35 31 32 29 29 25 24 23 21 18 16 15 15 20 25 28 32 33 32 30 33 32 32 35 40 41 44 48 48 48 50 48 48 49 50 51 52 52
13 21 15 5 11 14 28 31 28 27 26 25 23 23 23 23 23 26 29 31 32 34 35 33 34 39 40 40 39 38 42 45 48 50 50 51 52 52 52 51 49 46 47 46
28 10 8 5 28 11 13 23 29 31 33 32 34 33 28 29 30 32 33 34 37 38 36 41 43 44 45 47 47 45 46 47 51 54 55 54 56 55 52 49 50 42 42 41
Wind_Direction_850mb
33 75 222 222 202 172 150 198 251 253 266 269 234 268 283 290 240 253 262 256 237 227 222 216 212 210 207 210 212 214 219 220 220 219 214 209 205 205 209 212 209 207 208 202
17 237 220 118 142 144 152 247 262 283 279 196 304 277 277 282 267 257 273 255 228 222 221 214 210 210 210 213 212 214 217 222 220 217 216 215 216 219 222 223 225 222 225 236
187 245 118 135 157 183 218 198 229 238 332 266 322 282 307 295 275 282 270 276 225 219 214 209 209 210 210 212 215 215 217 221 222 220 221 221 226 226 227 229 231 230 232 240
232 253 173 180 230 155 269 206 171 253 36 255 4 289 305 290 300 272 270 248 233 213 213 211 210 209 210 211 211 214 217 222 225 226 227 231 234 233 232 231 234 237 239 243
254 169 185 197 218 163 223 105 138 96 155 9 277 188 268 311 304 343 344 262 230 198 204 207 209 211 210 208 209 211 216 223 227 232 232 233 234 234 234 238 239 240 242 245
245 262 189 211 129 166 134 96 61 61 100 316 216 170 273 231 227 312 3 71 90 156 163 181 199 209 211 206 208 212 220 226 231 234 236 239 241 241 243 244 243 244 247 249
281 222 224 174 126 51 125 70 318 326 1 230 147 179 242 239 320 288 328 97 108 132 147 161 179 193 202 206 208 213 220 226 231 236 239 242 244 246 248 247 247 249 253 257
207 307 182 178 201 184 179 170 168 246 227 262 128 238 247 131 89 88 102 114 117 120 129 139 148 164 182 194 202 209 218 222 224 231 240 243 245 248 249 247 248 251 255 259
179 265 155 189 151 151 179 184 196 166 117 352 226 284 276 141 111 92 97 112 103 111 121 129 141 153 164 179 193 201 208 213 218 226 235 242 245 245 247 250 253 254 257 259
220 291 194 141 114 42 166 164 79 11 248 245 270 269 239 224 202 158 124 108 113 116 121 125 133 142 155 168 181 187 197 203 210 220 230 236 242 243 245 246 247 250 253 256
157 167 241 130 196 185 129 217 216 178 172 213 266 260 215 218 183 170 144 143 136 125 122 124 128 137 149 163 175 180 192 202 205 212 226 234 240 242 243 247 252 259 265 269
210 172 234 218 237 195 193 203 179 205 234 238 256 264 7 62 122 134 137 145 142 134 129 133 135 136 144 153 166 178 181 198 198 211 230 245 250 252 256 258 256 270 273 277
186 217 309 309 23 14 229 210 216 314 10 243 238 253 112 111 118 148 147 156 151 152 143 142 142 144 154 160 187 190 202 225 245 247 249 253 258 261 263 269 277 281 280 275
167 189 204 254 250 148 208 221 211 220 239 245 234 262 214 201 182 168 163 160 157 159 155 155 143 132 133 136 144 150 152 181 219 230 241 249 258 271 276 277 279 281 277 276
181 256 231 256 260 258 259 258 231 229 235 242 261 241 255 216 195 183 166 158 155 152 150 149 142 131 132 131 136 132 138 183 259 277 280 290 296 291 286 284 280 275 273 276
203 247 222 255 260 241 253 253 246 246 249 250 252 260 265 76 146 155 159 155 148 148 147 142 132 125 119 109 88 50 5 343 333 312 308 303 296 291 290 285 281 273 270 271
186 231 198 259 270 261 252 246 246 247 243 234 244 252 127 154 145 145 142 142 139 141 139 136 133 124 124 122 14 350 340 334 325 319 312 305 299 297 295 290 285 281 281 280
232 230 241 262 264 247 250 17 272 224 248 19 39 68 78 113 95 111 132 138 132 131 129 134 135 122 78 315 333 332 317 313 313 310 305 303 303 303 298 294 290 290 290 288
232 241 252 251 242 257 264 14 11 139 7 355 105 105 109 108 93 72 107 122 124 128 136 165 314 333 325 304 310 315 313 309 307 302 303 307 303 299 298 298 300 298 296 293
246 237 238 244 259 264 44 343 337 301 215 3 62 102 123 126 137 93 117 108 112 121 99 325 323 320 310 308 308 308 306 302 302 302 302 300 298 297 297 299 299 297 295 294
332 291 246 238 245 111 339 308 307 160 1 10 48 45 67 79 73 126 121 94 35 10 338 310 309 308 305 306 307 308 307 305 302 300 299 299 299 300 299 299 299 296 295 292
319 315 321 326 308 240 352 346 36 299 54 48 53 61 87 98 96 94 82 39 345 328 314 307 308 304 298 300 302 305 306 302 302 301 301 300 300 298 301 298 297 296 296 295
302 337 321 9 25 18 23 43 44 64 67 52 47 41 54 63 57 28 17 349 327 317 312 307 303 302 301 302 306 306 304 302 301 299 299 302 300 301 301 298 298 299 299 295
11 17 35 233 17 24 37 40 40 41 48 42 37 31 26 18 357 343 333 326 322 315 311 311 308 305 304 303 302 303 302 304 302 302 303 300 301 303 300 299 298 297 295 293
342 332 324 103 32 323 37 29 18 22 28 27 16 9 3 349 336 329 325 319 314 311 310 306 303 304 308 309 307 308 307 305 301 298 301 302 302 300 299 298 299 296 294 296
358 346 356 331 339 298 1 4 9 7 7 2 353 347 343 335 326 319 316 315 314 310 307 307 307 306 307 308 311 312 307 302 301 302 303 302 302 302 300 301 299 292 292 291